Location: Kimberly
(42.5380°N, 114.3640°W)
Time: 08:00:55
(UTC-06:00)

OTV 5 (USA 277) - Visible Passes

Search period start: 22 May 2018 00:00
Search period end: 01 June 2018 00:00
Orbit: 308 x 326 km, 54.5° (Epoch: 06 May)

Date Brightness Start Highest point End Pass type
(mag) Time Alt. Az. Time Alt. Az. Time Alt. Az.
27 May ? 05:30:27 10° SSE 05:32:02 14° SE 05:33:38 10° E visible
30 May ? 04:39:35 16° S 04:40:53 22° SE 04:43:07 10° ENE visible
31 May ? 04:53:26 20° SW 04:55:10 67° SE 04:57:54 10° NE visible
